Location: Recife
(8.0585°S, 34.8848°W)
Time: 21:21:43
(UTC-03:00)

Vanguard 2 - Pass Details

Date: 23 April 2026
Orbit: 553 x 2895 km, 32.9° (Epoch: 17 May)

Event Time Altitude Azimuth Distance (km) Brightness Sun altitude
Exits shadow 01:23:14 35° 133° (SE) 3,660 10.9 -58.9°
Drops below altitude 10° 01:32:16 10° 96° (E) 4,754 11.9 -56.7°
Sets 01:35:52 0° 88° (E) 5,461 12.4 -55.8°
